KA9EES Weather Reports


time (UTC)temp
C
wind
direction
speed
KPH
gust
KPH
rain 1hr
cm
rain 24hr
cm
rain mn
cm
humidity
%
barometer
mb
20260510142503 16 355 6.4 11.3 0.00 0.00 0.00 1018.3
20260510142003 16 16 3.2 11.3 0.00 0.00 0.00 1018.3
20260510141504 16 329 4.8 11.3 0.00 0.00 0.00 1018.2
20260510141004 16 334 3.2 12.9 0.00 0.00 0.00 1018.1
20260510140503 15 343 8.0 14.5 0.00 0.00 0.00 1018.1
20260510140003 15 341 4.8 14.5 0.00 0.00 0.00 1018.1
20260510135504 15 338 4.8 9.7 0.00 0.00 0.00 1018.0
20260510135004 15 310 1.6 9.7 0.00 0.00 0.00 1017.8
20260510134004 15 323 3.2 9.7 0.00 0.00 0.00 1017.8
20260510133504 14 346 3.2 9.7 0.00 0.00 0.00 1017.7
20260510133004 14 331 1.6 11.3 0.00 0.00 0.00 1017.8
20260510132503 14 356 1.6 11.3 0.00 0.00 0.00 1017.6
20260510132004 13 346 4.8 11.3 0.00 0.00 0.00 1017.3
20260510131503 13 340 4.8 11.3 0.00 0.00 0.00 1017.5
20260510131003 13 330 1.6 11.3 0.00 0.00 0.00 1017.5
20260510130003 13 339 3.2 12.9 0.00 0.00 0.00 1017.2
20260510124503 12 329 4.8 11.3 0.00 0.00 0.00 1017.1
20260510124003 12 355 6.4 11.3 0.00 0.00 0.00 1017.1
20260510123504 12 352 4.8 11.3 0.00 0.00 0.00 1017.0
20260510122003 11 334 8.0 14.5 0.00 0.00 0.00 1016.0
20260510121504 11 344 6.4 14.5 0.00 0.00 0.00 1016.6
20260510121003 11 348 9.7 14.5 0.00 0.00 0.00 1016.5
20260510120503 11 333 3.2 12.9 0.00 0.00 0.00 1016.3
20260510120004 11 341 3.2 12.9 0.00 0.00 0.00 1016.2
20260510115504 11 340 4.8 12.9 0.00 0.00 0.00 1016.0
20260510114503 11 335 3.2 11.3 0.00 0.00 0.00 1015.9
20260510114004 11 342 4.8 11.3 0.00 0.00 0.00 1015.8
20260510113504 11 344 4.8 11.3 0.00 0.00 0.00 1015.7
20260510113003 11 338 3.2 12.9 0.00 0.00 0.00 1015.6
20260510112504 11 338 4.8 12.9 0.00 0.00 0.00 1015.5
20260510111503 11 345 3.2 8.0 0.00 0.00 0.00 1015.5
20260510111004 11 329 3.2 8.0 0.00 0.00 0.00 1015.2
20260510110504 11 331 3.2 8.0 0.00 0.00 0.00 1015.0
20260510110003 11 341 3.2 8.0 0.00 0.00 0.00 1014.8
20260510105503 11 337 3.2 8.0 0.00 0.00 0.00 1014.8
20260510105004 11 342 3.2 8.0 0.00 0.00 0.00 1014.7
20260510104503 11 340 1.6 9.7 0.00 0.00 0.00 1014.4
20260510104004 11 348 1.6 9.7 0.00 0.00 0.00 1014.4
20260510103504 11 334 3.2 9.7 0.00 0.00 0.00 1014.3
20260510103003 11 348 3.2 9.7 0.00 0.00 0.00 1014.0
20260510102504 11 344 3.2 9.7 0.00 0.00 0.00 1013.8
20260510101004 11 336 3.2 9.7 0.00 0.00 0.00 1013.5
20260510100503 11 350 4.8 9.7 0.00 0.00 0.00 1013.5
20260510100004 11 345 1.6 4.8 0.00 0.00 0.00 1013.6
20260510095003 12 344 1.6 4.8 0.00 0.00 0.00 1013.5
20260510094504 12 334 1.6 4.8 0.00 0.00 0.00 1013.5
20260510094004 12 341 1.6 4.8 0.00 0.00 0.00 1013.4
20260510093004 12 359 1.6 3.2 0.00 0.00 0.00 1013.0
20260510092503 12 337 1.6 4.8 0.00 0.00 0.00 1013.1
20260510092003 12 1 3.2 4.8 0.00 0.00 0.00 1013.0
20260510091003 13 357 3.2 8.0 0.00 0.00 0.00 1013.0
20260510090503 13 350 3.2 4.8 0.00 0.00 0.00 1012.9
20260510090004 13 333 1.6 8.0 0.00 0.00 0.00 1012.9
20260510085503 13 332 1.6 8.0 0.00 0.00 0.00 1012.9
20260510085004 13 339 3.2 4.8 0.00 0.00 0.00 1012.8
20260510083504 14 292 1.6 4.8 0.00 0.00 0.00 1012.9
20260510083004 14 355 3.2 4.8 0.00 0.00 0.00 1012.8
20260510082004 14 355 3.2 4.8 0.00 0.00 0.00 1012.8
20260510081503 14 358 3.2 8.0 0.00 0.00 0.00 1012.6
20260510081003 14 356 3.2 8.0 0.00 0.00 0.00 1012.6
20260510080504 14 344 3.2 8.0 0.00 0.00 0.00 1012.6
20260510080004 14 348 1.6 8.0 0.00 0.00 0.00 1012.6
20260510075503 14 350 3.2 8.0 0.00 0.00 0.00 1012.4
20260510075004 14 348 3.2 8.0 0.00 0.00 0.00 1012.3
20260510073004 15 17 3.2 9.7 0.00 0.00 0.00 1012.3
20260510072504 15 9 3.2 9.7 0.00 0.00 0.00 1012.4
20260510072003 15 2 3.2 9.7 0.00 0.00 0.00 1012.4
20260510071503 15 17 3.2 8.0 0.00 0.00 0.00 1012.3
20260510071004 15 0 3.2 8.0 0.00 0.00 0.00 1012.3
20260510070004 15 6 4.8 16.1 0.00 0.00 0.00 1012.3
20260510065504 15 21 4.8 16.1 0.00 0.00 0.00 1012.2
20260510065003 15 11 4.8 12.9 0.00 0.00 0.00 1012.1
20260510064504 15 3 4.8 11.3 0.00 0.00 0.00 1012.0
20260510064004 15 9 4.8 14.5 0.00 0.00 0.00 1011.9
20260510063503 15 3 6.4 14.5 0.00 0.00 0.00 1011.9
20260510063003 15 18 8.0 12.9 0.00 0.00 0.00 1011.8
20260510062503 15 3 8.0 12.9 0.00 0.00 0.00 1011.8
20260510062004 16 10 6.4 12.9 0.00 0.00 0.00 1011.7
20260510061503 16 354 4.8 12.9 0.00 0.00 0.00 1011.6
20260510061004 16 355 4.8 9.7 0.00 0.00 0.00 1011.6
20260510060504 16 337 3.2 8.0 0.00 0.00 0.00 1011.7
20260510060003 16 304 3.2 8.0 0.00 0.00 0.00 1011.7
20260510055504 16 321 1.6 8.0 0.00 0.00 0.00 1011.6
20260510055004 16 294 3.2 8.0 0.00 0.00 0.00 1011.7
20260510054504 16 304 3.2 11.3 0.00 0.00 0.00 1011.5
20260510054004 16 291 1.6 11.3 0.00 0.00 0.00 1011.5
20260510053503 17 299 3.2 12.9 0.00 0.00 0.00 1011.4
20260510052504 17 288 3.2 9.7 0.00 0.00 0.00 1011.5
20260510052004 17 254 3.2 9.7 0.00 0.00 0.00 1011.4
20260510051503 16 273 4.8 9.7 0.00 0.00 0.00 1011.1
20260510051004 16 266 4.8 9.7 0.00 0.00 0.00 1011.0
20260510050503 16 279 3.2 9.7 0.00 0.00 0.00 1010.9
20260510050003 16 262 4.8 11.3 0.00 0.00 0.00 1011.0
20260510045504 16 266 4.8 11.3 0.00 0.00 0.00 1010.8
20260510044504 16 263 8.0 11.3 0.00 0.00 0.00 1010.9
20260510044004 16 241 4.8 9.7 0.00 0.00 0.00 1010.9
20260510043503 16 263 4.8 9.7 0.00 0.00 0.00 1010.9
20260510043004 16 243 3.2 8.0 0.00 0.00 0.00 1010.6
20260510042503 16 248 3.2 4.8 0.00 0.00 0.00 1010.6
20260510042004 16 226 3.2 4.8 0.00 0.00 0.00 1010.6
20260510041503 16 246 3.2 4.8 0.00 0.00 0.00 1010.7
20260510041003 16 239 1.6 4.8 0.00 0.00 0.00 1010.5
20260510040504 16 247 3.2 4.8 0.00 0.00 0.00 1010.4
20260510040003 16 241 1.6 3.2 0.00 0.00 0.00 1010.2
20260510035503 16 213 1.6 3.2 0.00 0.00 0.00 1010.2
20260510035004 16 140 0.0 3.2 0.00 0.00 0.00 1010.1
20260510034503 16 206 3.2 3.2 0.00 0.00 0.00 1010.3
20260510034004 17 224 0.0 3.2 0.00 0.00 0.00 1010.3
20260510033003 17 214 3.2 3.2 0.00 0.00 0.00 1010.2
20260510032504 17 150 0.0 3.2 0.00 0.00 0.00 1010.1
20260510031503 17 198 0.0 4.8 0.00 0.00 0.00 1010.1
20260510031003 17 151 1.6 4.8 0.00 0.00 0.00 1010.1
20260510030504 17 179 1.6 4.8 0.00 0.00 0.00 1010.2
20260510030003 17 123 1.6 4.8 0.00 0.00 0.00 1010.1
20260510025503 17 165 1.6 3.2 0.00 0.00 0.00 1010.1
20260510025004 17 193 3.2 3.2 0.00 0.00 0.00 1010.0
20260510024503 18 306 0.0 0.0 0.00 0.00 0.00 1009.9
20260510024003 18 306 0.0 0.0 0.00 0.00 0.00 1010.0
20260510023003 18 306 0.0 3.2 0.00 0.00 0.00 1009.7
20260510022504 18 271 0.0 3.2 0.00 0.00 0.00 1009.7
20260510022003 18 271 1.6 3.2 0.00 0.00 0.00 1009.8
20260510021503 18 278 0.0 1.6 0.00 0.00 0.00 1009.6
20260510021003 18 253 0.0 1.6 0.00 0.00 0.00 1009.5
20260510020503 18 275 0.0 4.8 0.00 0.00 0.00 1009.5
20260510020004 18 302 1.6 4.8 0.00 0.00 0.00 1009.4
20260510015504 18 305 0.0 0.0 0.00 0.00 0.00 1009.3
20260510015004 18 305 0.0 0.0 0.00 0.00 0.00 1009.1
20260510013504 20 305 0.0 3.2 0.00 0.00 0.00 1008.8
20260510013004 20 305 0.0 3.2 0.00 0.00 0.00 1008.7
20260510012504 20 294 0.0 1.6 0.00 0.00 0.00 1008.6
20260510011503 20 308 1.6 4.8 0.00 0.00 0.00 1008.4
20260510011003 20 327 1.6 11.3 0.00 0.00 0.00 1008.3
20260510010504 20 319 1.6 11.3 0.00 0.00 0.00 1008.2
20260510005503 20 274 3.2 8.0 0.00 0.00 0.00 1007.9
20260510004503 20 242 3.2 4.8 0.00 0.00 0.00 1007.8
20260510004004 21 245 4.8 8.0 0.00 0.00 0.00 1007.7
20260510003004 21 242 4.8 8.0 0.00 0.00 0.00 1007.6
20260510002504 22 242 4.8 8.0 0.00 0.00 0.00 1007.6
20260510002003 22 241 3.2 8.0 0.00 0.00 0.00 1007.5
20260510001504 22 250 1.6 8.0 0.00 0.00 0.00 1007.5
20260510000004 22 248 3.2 12.9 0.00 0.00 0.00 1007.4
20260509235503 22 252 8.0 12.9 0.00 0.00 0.00 1007.3
20260509235004 23 250 8.0 12.9 0.00 0.00 0.00 1007.3
20260509234504 23 256 8.0 19.3 0.00 0.00 0.00 1007.3
20260509234003 23 255 8.0 19.3 0.00 0.00 0.00 1007.4
20260509233004 23 266 9.7 19.3 0.00 0.00 0.00 1007.3
20260509232503 23 249 4.8 20.9 0.00 0.00 0.00 1007.2
20260509232004 23 264 8.0 20.9 0.00 0.00 0.00 1007.3
20260509231503 24 263 9.7 22.5 0.00 0.00 0.00 1007.3
20260509230504 25 255 8.0 19.3 0.00 0.00 0.00 1007.2
20260509230004 25 248 9.7 24.1 0.00 0.00 0.00 1007.2
20260509225503 24 256 14.5 24.1 0.00 0.00 0.00 1007.2
20260509225004 24 264 8.0 20.9 0.00 0.00 0.00 1007.2
20260509224504 24 264 11.3 20.9 0.00 0.00 0.00 1007.2
20260509224004 24 259 9.7 20.9 0.00 0.00 0.00 1007.2
20260509223504 24 254 9.7 22.5 0.00 0.00 0.00 1007.2
20260509223004 25 252 12.9 22.5 0.00 0.00 0.00 1007.1
20260509222003 25 270 12.9 32.2 0.00 0.00 0.00 1007.1
20260509221504 25 260 11.3 32.2 0.00 0.00 0.00 1007.1
20260509221004 25 264 16.1 25.7 0.00 0.00 0.00 1007.2
20260509220504 25 271 14.5 25.7 0.00 0.00 0.00 1007.2
20260509220003 25 258 16.1 25.7 0.00 0.00 0.00 1007.2
20260509215003 25 246 11.3 22.5 0.00 0.00 0.00 1007.0
20260509214503 25 271 11.3 22.5 0.00 0.00 0.00 1007.1
20260509214004 25 262 14.5 25.7 0.00 0.00 0.00 1007.0
20260509213504 25 250 11.3 25.7 0.00 0.00 0.00 1007.0
20260509213003 25 265 16.1 25.7 0.00 0.00 0.00 1007.0
20260509212504 25 272 14.5 24.1 0.00 0.00 0.00 1007.0
20260509212003 25 255 9.7 24.1 0.00 0.00 0.00 1007.0
20260509211503 25 245 16.1 24.1 0.00 0.00 0.00 1007.0
20260509210504 25 241 14.5 27.4 0.00 0.00 0.00 1006.9
20260509210003 25 234 14.5 25.7 0.00 0.00 0.00 1006.9
20260509205004 24 243 14.5 24.1 0.00 0.00 0.00 1006.8
20260509204504 25 232 12.9 24.1 0.00 0.00 0.00 1006.8
20260509203504 25 236 14.5 22.5 0.00 0.00 0.00 1007.0
20260509202503 24 236 12.9 29.0 0.00 0.03 0.00 1007.1
20260509202003 24 253 14.5 29.0 0.00 0.03 0.00 1007.1
20260509201004 24 235 16.1 32.2 0.00 0.05 0.00 1007.1
20260509200504 24 237 16.1 32.2 0.00 0.05 0.00 1007.2
20260509195504 24 250 16.1 27.4 0.00 0.05 0.00 1007.2
20260509195003 24 246 16.1 25.7 0.00 0.05 0.00 1007.2
20260509194003 23 243 12.9 29.0 0.00 0.05 0.00 1007.2
20260509193004 23 251 16.1 29.0 0.00 0.05 0.00 1007.1
20260509192503 23 231 16.1 29.0 0.00 0.05 0.00 1007.1
20260509192004 23 228 16.1 29.0 0.00 0.05 0.00 1007.0
20260509191504 23 226 14.5 33.8 0.00 0.08 0.00 1006.9
20260509191003 23 233 14.5 33.8 0.00 0.08 0.00 1007.0
20260509190504 23 221 14.5 45.1 0.00 0.08 0.00 1007.1
20260509190004 23 212 22.5 45.1 0.00 0.08 0.00 1007.1
20260509185504 23 231 14.5 37.0 0.00 0.08 0.00 1007.1
20260509185003 22 227 20.9 37.0 0.00 0.10 0.00 1007.1
20260509184504 23 206 20.9 37.0 0.00 0.13 0.00 1007.2
20260509184004 22 236 19.3 33.8 0.00 0.13 0.00 1007.2
20260509183503 22 235 16.1 32.2 0.00 0.13 0.00 1007.3
20260509183003 22 218 19.3 33.8 0.00 0.13 0.00 1007.3
20260509182505 22 227 14.5 33.8 0.00 0.13 0.00 1007.3
20260509182004 22 219 19.3 33.8 0.00 0.13 0.00 1007.2
20260509181504 22 230 14.5 29.0 0.00 0.13 0.00 1007.2
20260509181003 21 234 16.1 32.2 0.00 0.13 0.00 1007.2
20260509180504 21 208 16.1 32.2 0.00 0.13 0.00 1007.2
20260509180003 21 219 17.7 32.2 0.00 0.13 0.00 1007.3
20260509175004 21 195 22.5 33.8 0.00 0.13 0.00 1007.1
20260509174504 21 225 17.7 29.0 0.00 0.13 0.00 1007.0
20260509172503 20 194 19.3 29.0 0.00 0.13 0.00 1007.2
20260509172003 20 208 20.9 35.4 0.00 0.13 0.00 1007.2
20260509171504 20 198 16.1 35.4 0.00 0.13 0.00 1007.2
20260509171003 20 196 17.7 29.0 0.00 0.13 0.00 1007.3
20260509170504 20 193 16.1 32.2 0.00 0.13 0.00 1007.2
20260509170004 19 200 19.3 33.8 0.00 0.13 0.00 1007.3
20260509165504 19 198 22.5 33.8 0.00 0.13 0.00 1007.4
20260509165004 19 204 19.3 32.2 0.00 0.13 0.00 1007.5
20260509164504 19 206 14.5 29.0 0.00 0.13 0.00 1007.6
20260509163504 18 215 16.1 29.0 0.00 0.13 0.00 1007.8
20260509163003 18 227 14.5 24.1 0.00 0.13 0.00 1008.0
20260509162504 18 227 12.9 24.1 0.00 0.13 0.00 1008.0
20260509162003 18 238 11.3 24.1 0.00 0.13 0.00 1007.8
20260509161004 18 220 14.5 27.4 0.00 0.13 0.00 1007.7
20260509160503 18 206 19.3 27.4 0.00 0.13 0.00 1007.8
20260509160004 18 191 16.1 24.1 0.00 0.13 0.00 1007.7
20260509155504 17 219 12.9 25.7 0.00 0.13 0.00 1007.6
20260509155004 17 201 16.1 25.7 0.00 0.13 0.00 1007.7
20260509154504 17 201 11.3 19.3 0.00 0.13 0.00 1007.6
20260509154004 17 224 9.7 19.3 0.00 0.13 0.00 1007.6
20260509153504 17 230 9.7 19.3 0.00 0.13 0.00 1007.6
20260509153003 17 244 9.7 25.7 0.00 0.13 0.00 1007.6
20260509152504 17 240 11.3 25.7 0.00 0.13 0.00 1007.7
20260509152004 17 228 9.7 25.7 0.00 0.13 0.00 1007.7
20260509151503 16 220 11.3 24.1 0.00 0.13 0.00 1007.7
20260509151004 16 205 12.9 25.7 0.00 0.13 0.00 1007.7
20260509150504 16 226 11.3 25.7 0.00 0.13 0.00 1007.6
20260509150003 16 221 9.7 24.1 0.00 0.13 0.00 1007.6
20260509145503 16 234 12.9 22.5 0.00 0.13 0.00 1007.5
20260509144503 15 200 14.5 25.7 0.00 0.13 0.00 1007.5
20260509144004 15 215 16.1 25.7 0.00 0.13 0.00 1007.6
20260509143503 15 206 16.1 27.4 0.00 0.13 0.00 1007.7